[[{"header":{"parameterUnit":"m.s-1","parameterCategory":1,"la1":30.2991,"la2":30.254,"lo1":-89.0895,"lo2":-89.0444,"dy":0.0017,"dx":0.0017,"nx":28,"ny":28,"refTime":"2023-09-13T09:00:00:Z","depth":0,"parameterNumber":2,"parameterNumberName":"U-component_of_WINDS"},"data":[0,0,0,0,0,0,0,0,0,0,0,0,0,0,0,0,0,0,0,0,0,0,0,0,0,0,0,0,0,0,0,0,0,0,0,0,0,0,0,0,0,0,0,0,0,0,0,0,0,0,0,0,0,0,0,0,0,0,-0.9721,-0.9722,0,-0.9783,-0.9784,-0.9785,-0.9758,-0.9757,-0.9755,-0.9754,-0.982,-0.9823,-0.9826,0,0,0,0,0,0,0,0,0,0,0,0,0,-0.9581,-0.9583,-0.9721,-0.9722,-0.9722,-0.9783,-0.9784,-0.9785,-0.9759,-0.9757,-0.9755,-0.9753,-0.9819,-0.9822,-0.9826,0,0,0,0,0,0,0,0,0,0,0,0,0,-0.9642,-0.9584,-0.9721,-0.9717,-0.9717,-0.9783,-0.9784,-0.9785,-0.9759,-0.9757,-0.9754,-0.9752,-0.9817,-0.9822,-0.9827,-0.9901,0,0,-0.9841,-0.9843,0,0,0,0,0,0,0,0,-0.9639,-0.9647,-0.9716,-0.9717,-0.9717,-0.9761,-0.9759,-0.9824,-0.976,-0.9743,-0.9754,-0.9751,-0.9802,-0.9808,-0.9825,-0.9904,-0.9907,-0.9842,-0.9844,-0.9846,-0.9848,0,0,0,0,0,0,0,-0.9635,-0.9645,-0.9745,-0.9717,-0.9718,-0.9712,-0.9718,-0.9771,-0.9784,-0.9744,-0.9743,-0.975,-0.9802,-0.982,-0.9826,-0.9908,-0.9841,-0.9846,-0.9848,-0.985,-1.0051,-1.0054,0,0,0,0,0,0,-0.963,-0.9641,-0.9744,-0.9747,-0.9672,-0.9716,-0.9723,-0.9749,-0.9784,-0.9787,-0.9752,-0.9749,-0.9813,-0.982,-0.9828,-0.9918,-0.9846,-0.9851,-0.9854,-1.0049,-1.0052,-1.0055,0,0,0,0,0,0,-0.9627,-0.9639,-0.9741,-0.9694,-0.9706,-0.9721,-0.975,-0.9751,-0.977,-0.979,-0.9792,-0.9768,-0.9812,-0.9821,-0.9883,-0.992,-0.9853,-0.9857,-1.0046,-1.005,-1.0053,-1.0098,0,0,0,0,0,0,-0.9623,-0.9638,-0.9667,-0.9695,-0.9709,-0.9795,-0.9752,-0.9754,-0.9778,-0.9774,-0.9805,-0.9808,-0.9811,-0.9876,-0.9888,-0.9925,-0.9861,-1.0043,-1.0048,-1.0052,-1.0093,-1.0102,-1.0111,0,0,0,0,0,-0.9618,-0.9677,-0.9668,-0.9681,-0.9744,-0.9797,-0.9805,-0.9806,-0.9781,-0.9809,-0.9822,-0.9807,-0.9913,-0.9883,-0.9895,-0.9935,-1.0041,-1.0046,-1.0052,-1.0089,-1.0101,-1.011,0,0,0,0,0,0,-0.9654,-0.9681,-0.9671,-0.9741,-0.9766,-0.9792,-0.9828,-0.9818,-0.9852,-0.9847,-0.9847,-0.9854,-0.9918,-0.9932,-0.9897,-1.0008,-0.9973,-0.9982,-0.9997,-1.0008,-1.0017,-1.0013,-0.9865,0,0,0,0,0,-0.9669,-0.9709,-0.9731,-0.979,-0.9803,-0.9814,-0.9837,-0.9835,-0.9862,-0.9873,-0.989,-0.9918,-0.9957,-0.9983,-1.0021,-1.0094,-1.0101,-1.0128,-1.0136,-1.0144,-1.0151,-1.0192,-1.0204,-1.0073,-1.0073,-1.0073,0,0,-0.9703,-0.9722,-0.9748,-0.9797,-0.9817,-0.9859,-0.9823,-0.9869,-0.99,-0.988,-0.9939,-0.9953,-0.9983,-1.0051,-1.0082,-1.0065,-1.0189,-1.0151,-1.0156,-1.016,-1.0199,-1.0211,-1.0222,-1.0077,-1.0076,-1.0076,0,0,-0.9785,-0.9803,-0.9855,-0.9875,-0.9906,-0.9912,-0.9924,-0.9952,-0.996,-1.0019,-1.0005,-1.0042,-1.011,-1.0132,-1.0152,-1.0242,-1.023,-1.0254,-1.0301,-1.034,-1.0351,-1.036,-1.0393,-1.0404,-1.0262,-1.0262,-1.0262,0,-0.9823,-0.9885,-0.9883,-0.993,-0.9953,-0.9935,-0.9988,-1.0008,-1.0049,-1.0065,-1.0045,-1.013,-1.0149,-1.0222,-1.0244,-1.0261,-1.0276,-1.0252,-1.0349,-1.0358,-1.0367,-1.0398,-1.0411,-1.0265,-1.0264,-1.0264,-1.0264,0,-0.993,-0.9973,-1.0011,-1.0051,-1.0078,-1.0127,-1.0133,-1.0161,-1.0156,-1.0165,-1.0225,-1.0248,-1.0289,-1.0306,-1.0303,-1.0379,-1.0368,-1.0348,-1.0313,-1.0382,-1.0412,-1.0424,-1.0269,-1.0268,-1.0267,-1.0266,0,0,-1.0038,-1.0075,-1.0089,-1.0107,-1.0139,-1.0173,-1.0221,-1.0261,-1.0285,-1.0314,-1.0355,-1.0412,-1.0395,-1.0418,-1.0416,-1.0451,-1.0521,-1.0427,-1.0428,-1.0445,-1.0608,-1.0623,-1.0637,-1.0513,-1.0515,-1.0517,-1.0605,0,-1.0124,-1.0209,-1.0208,-1.0287,-1.0327,-1.0311,-1.0353,-1.0377,-1.0386,-1.0422,-1.0432,-1.0473,-1.0446,-1.046,-1.0493,-1.0506,-1.0554,-1.0499,-1.0552,-1.0554,-1.0546,-1.0652,-1.0669,-1.0751,-1.0617,-1.0619,-1.062,0,-1.0235,-1.0267,-1.035,-1.0375,-1.0392,-1.043,-1.0467,-1.0501,-1.0528,-1.0532,-1.0558,-1.0551,-1.0601,-1.0563,-1.0632,-1.0594,-1.0616,-1.0625,-1.0628,-1.0635,-1.0592,-1.0662,-1.0778,-1.079,-1.0638,-1.0637,-1.0636,0,-1.0307,-1.037,-1.0428,-1.0443,-1.0475,-1.0502,-1.0516,-1.0541,-1.0565,-1.0597,-1.0613,-1.065,-1.0671,-1.0701,-1.0704,-1.0676,-1.0774,-1.0736,-1.078,-1.078,-1.0802,-1.0801,-1.0924,-1.0814,-1.0814,-1.0814,-1.0813,0,-1.0403,-1.0455,-1.0461,-1.0496,-1.0554,-1.0552,-1.0609,-1.0621,-1.0643,-1.0681,-1.0669,-1.0705,-1.0707,-1.0744,-1.0747,-1.0804,-1.0813,-1.0818,-1.0819,-1.082,-1.082,-1.0835,-1.083,-1.0817,-1.0816,-1.0816,-1.0815,0,-1.0494,-1.0499,-1.0562,-1.0585,-1.0593,-1.0634,-1.0655,-1.0689,-1.0696,-1.0744,-1.0756,-1.0768,-1.081,-1.0816,-1.0867,-1.0869,-1.0938,-1.0931,-1.0929,-1.0928,-1.0971,-1.0968,-1.111,-1.1128,-1.1005,-1.1006,-1.1007,0,-1.0556,-1.0595,-1.0623,-1.0647,-1.0663,-1.0702,-1.0726,-1.0726,-1.0752,-1.0785,-1.0816,-1.0857,-1.089,-1.096,-1.0973,-1.1012,-1.1007,-1.1054,-1.1013,-1.1013,-1.1009,-1.1007,-1.1011,-1.1063,-1.1064,-1.1065,-1.1066,0,-1.0665,-1.0666,-1.0701,-1.0737,-1.0766,-1.0795,-1.0822,-1.0843,-1.0846,-1.0876,-1.0919,-1.0945,-1.0996,-1.1037,-1.1075,-1.109,-1.1079,-1.1078,-1.1091,-1.1093,-1.109,-1.1094,-1.0952,-1.1076,-1.1075,-1.1074,-1.1073,-1.1073,-1.0744,-1.0778,-1.0803,-1.0843,-1.0863,-1.0888,-1.0921,-1.0932,-1.0968,-1.101,-1.1007,-1.1055,-1.1081,-1.113,-1.1148,-1.1186,-1.117,-1.1188,-1.1193,-1.1197,-1.1202,-1.1083,-1.1193,-1.1192,-1.1192,-1.1192,-1.1192,0,-1.0854,-1.0869,-1.0905,-1.0943,-1.0974,-1.0959,-1.0988,-1.1016,-1.1058,-1.1082,-1.1115,-1.1165,-1.1205,-1.1221,-1.126,-1.1288,-1.1283,-1.1298,-1.1297,-1.1301,-1.1213,-1.1199,-1.1301,-1.1301,-1.1301,-1.1301,-1.1301,-1.1301,-1.0915,-1.0972,-1.0975,-1.1042,-1.1057,-1.1103,-1.1121,-1.1145,-1.1164,-1.122,-1.1253,-1.1263,-1.1284,-1.1325,-1.1361,-1.1365,-1.138,-1.1398,-1.1399,-1.1318,-1.1307,-1.1296,-1.1283,-1.1401,-1.1401,-1.1484,-1.1484,-1.1485]},{"header":{"parameterUnit":"m.s-1","parameterCategory":1,"la1":30.2991,"la2":30.254,"lo1":-89.0895,"lo2":-89.0444,"dy":0.0017,"dx":0.0017,"nx":28,"ny":28,"refTime":"2023-09-13T09:00:00:Z","depth":0,"parameterNumber":3,"parameterNumberName":"V-component_of_WINDS"},"data":[0,0,0,0,0,0,0,0,0,0,0,0,0,0,0,0,0,0,0,0,0,0,0,0,0,0,0,0,0,0,0,0,0,0,0,0,0,0,0,0,0,0,0,0,0,0,0,0,0,0,0,0,0,0,0,0,0,0,-4.3855,-4.3856,0,-4.3929,-4.393,-4.3931,-4.3888,-4.3886,-4.3884,-4.3882,-4.3953,-4.3957,-4.3961,0,0,0,0,0,0,0,0,0,0,0,0,0,-4.3673,-4.3676,-4.3855,-4.3856,-4.3857,-4.3929,-4.393,-4.3931,-4.3888,-4.3886,-4.3883,-4.3881,-4.3952,-4.3957,-4.3961,0,0,0,0,0,0,0,0,0,0,0,0,0,-4.375,-4.3677,-4.3855,-4.3845,-4.3844,-4.3929,-4.393,-4.3931,-4.3889,-4.3886,-4.3883,-4.388,-4.3951,-4.3956,-4.3962,-4.406,0,0,-4.3979,-4.3982,0,0,0,0,0,0,0,0,-4.3745,-4.3756,-4.3845,-4.3845,-4.3845,-4.3896,-4.3892,-4.3974,-4.389,-4.3872,-4.3882,-4.3878,-4.3937,-4.3943,-4.3964,-4.4063,-4.4066,-4.398,-4.3983,-4.3986,-4.3988,0,0,0,0,0,0,0,-4.374,-4.3753,-4.3884,-4.3846,-4.3847,-4.3835,-4.3842,-4.3907,-4.3921,-4.3873,-4.387,-4.388,-4.3936,-4.3958,-4.3965,-4.4067,-4.398,-4.3985,-4.3988,-4.3991,-4.4249,-4.4252,0,0,0,0,0,0,-4.3736,-4.3749,-4.3882,-4.3886,-4.3787,-4.3841,-4.3849,-4.3883,-4.392,-4.3923,-4.3882,-4.3878,-4.395,-4.3959,-4.3968,-4.4084,-4.3986,-4.3991,-4.3995,-4.4245,-4.4249,-4.4253,0,0,0,0,0,0,-4.3732,-4.3748,-4.3879,-4.3817,-4.3833,-4.3847,-4.3886,-4.3886,-4.3908,-4.3927,-4.3929,-4.3903,-4.3948,-4.3959,-4.4037,-4.4086,-4.3994,-4.3999,-4.4241,-4.4247,-4.4251,-4.4317,0,0,0,0,0,0,-4.3727,-4.3747,-4.3786,-4.3818,-4.3836,-4.3949,-4.3889,-4.389,-4.3919,-4.3913,-4.3947,-4.3949,-4.3946,-4.4029,-4.4043,-4.4092,-4.4004,-4.4237,-4.4244,-4.425,-4.4311,-4.4324,-4.4335,0,0,0,0,0,-4.3721,-4.38,-4.3788,-4.3804,-4.3885,-4.3952,-4.3962,-4.3958,-4.3923,-4.3961,-4.3973,-4.3948,-4.4078,-4.4037,-4.4053,-4.4104,-4.4234,-4.4242,-4.4249,-4.4305,-4.4321,-4.4335,0,0,0,0,0,0,-4.3771,-4.3804,-4.3791,-4.3883,-4.3915,-4.3944,-4.3992,-4.3975,-4.4017,-4.4009,-4.4002,-4.401,-4.4091,-4.4105,-4.4059,-4.42,-4.415,-4.4161,-4.4188,-4.4203,-4.4215,-4.4209,-4.4008,0,0,0,0,0,-4.3794,-4.3847,-4.3872,-4.3951,-4.3968,-4.3978,-4.4007,-4.4001,-4.4033,-4.4046,-4.4063,-4.4094,-4.4142,-4.4173,-4.4218,-4.4313,-4.4319,-4.4356,-4.4368,-4.4378,-4.4387,-4.4437,-4.4454,-4.4278,-4.4278,-4.4278,0,0,-4.3839,-4.3864,-4.3898,-4.3962,-4.3986,-4.404,-4.3989,-4.4048,-4.4087,-4.4054,-4.4129,-4.4143,-4.4177,-4.4263,-4.4302,-4.4277,-4.4437,-4.4388,-4.4395,-4.4399,-4.4447,-4.4463,-4.4478,-4.4283,-4.4283,-4.4282,0,0,-4.395,-4.3975,-4.4043,-4.4069,-4.4106,-4.4112,-4.4128,-4.416,-4.4169,-4.4244,-4.422,-4.4266,-4.4349,-4.4374,-4.4397,-4.4518,-4.4496,-4.4532,-4.4596,-4.4645,-4.4659,-4.4671,-4.4713,-4.4728,-4.4542,-4.4542,-4.4542,0,-4.4002,-4.4083,-4.408,-4.4141,-4.417,-4.4144,-4.4212,-4.4237,-4.4286,-4.4306,-4.4278,-4.4382,-4.4402,-4.4494,-4.4523,-4.4544,-4.4561,-4.4528,-4.4657,-4.467,-4.4681,-4.4721,-4.4737,-4.4546,-4.4546,-4.4545,-4.4545,0,-4.4145,-4.4201,-4.4252,-4.4302,-4.4337,-4.4401,-4.4406,-4.4441,-4.4433,-4.4441,-4.4517,-4.4541,-4.4591,-4.4612,-4.4604,-4.4702,-4.4686,-4.4658,-4.4608,-4.4702,-4.4739,-4.4754,-4.4552,-4.4551,-4.4549,-4.4548,0,0,-4.4288,-4.4337,-4.4355,-4.4378,-4.4417,-4.446,-4.4523,-4.4573,-4.4602,-4.4638,-4.4689,-4.476,-4.4734,-4.4761,-4.4756,-4.4799,-4.4892,-4.4765,-4.4766,-4.4787,-4.5,-4.5021,-4.5039,-4.4878,-4.4881,-4.4884,-4.4997,0,-4.4401,-4.4513,-4.4511,-4.4614,-4.4666,-4.4642,-4.4697,-4.4726,-4.4736,-4.478,-4.4789,-4.484,-4.4803,-4.4819,-4.486,-4.4872,-4.4934,-4.4864,-4.4925,-4.4927,-4.4916,-4.5058,-4.508,-4.5186,-4.5012,-4.5014,-4.5016,0,-4.4547,-4.4589,-4.4697,-4.4729,-4.4751,-4.48,-4.4845,-4.4889,-4.4921,-4.4925,-4.4955,-4.4943,-4.5005,-4.4954,-4.5039,-4.4991,-4.5016,-4.5025,-4.5029,-4.5034,-4.4977,-4.5066,-4.522,-4.5235,-4.5039,-4.5038,-4.5036,0,-4.464,-4.4723,-4.4799,-4.4819,-4.4858,-4.4893,-4.4911,-4.4941,-4.497,-4.5009,-4.5028,-4.5074,-4.5098,-4.5133,-4.5133,-4.5096,-4.5219,-4.5168,-4.5222,-4.5222,-4.5248,-4.5246,-4.5407,-4.5266,-4.5266,-4.5265,-4.5265,0,-4.4766,-4.4833,-4.4841,-4.4887,-4.4961,-4.4959,-4.5031,-4.5045,-4.5072,-4.512,-4.5102,-4.5146,-4.5144,-4.5189,-4.5189,-4.5259,-4.527,-4.5274,-4.5273,-4.5275,-4.5274,-4.529,-4.5282,-4.527,-4.5269,-4.5268,-4.5267,0,-4.4882,-4.489,-4.4971,-4.5002,-4.5011,-4.5064,-4.509,-4.5133,-4.5142,-4.5202,-4.5216,-4.5228,-4.528,-4.5284,-4.5343,-4.5343,-4.5428,-4.5419,-4.5417,-4.5415,-4.5469,-4.5464,-4.5645,-4.5668,-4.5513,-4.5514,-4.5516,0,-4.4961,-4.5012,-4.5049,-4.508,-4.5101,-4.5151,-4.5182,-4.5181,-4.5214,-4.5255,-4.5293,-4.5343,-4.5383,-4.5467,-4.548,-4.5525,-4.5517,-4.5578,-4.5524,-4.5524,-4.5517,-4.5513,-4.5518,-4.5588,-4.5589,-4.5591,-4.5592,0,-4.51,-4.5102,-4.5147,-4.5195,-4.5233,-4.527,-4.5304,-4.533,-4.5333,-4.5371,-4.5424,-4.5456,-4.5517,-4.5567,-4.5611,-4.5628,-4.561,-4.5609,-4.5624,-4.5626,-4.5623,-4.5624,-4.5445,-4.5605,-4.5603,-4.5602,-4.5602,-4.5601,-4.5199,-4.5243,-4.5277,-4.5328,-4.5354,-4.5387,-4.5429,-4.5443,-4.5488,-4.5539,-4.5536,-4.5595,-4.5625,-4.5683,-4.5703,-4.5748,-4.5728,-4.5749,-4.5755,-4.576,-4.5765,-4.5617,-4.5756,-4.5756,-4.5756,-4.5755,-4.5755,0,-4.5336,-4.5357,-4.5404,-4.5454,-4.5494,-4.5476,-4.5513,-4.5548,-4.56,-4.5631,-4.5672,-4.5733,-4.5781,-4.5799,-4.5845,-4.5878,-4.5871,-4.589,-4.5887,-4.5891,-4.5781,-4.5764,-4.5895,-4.5895,-4.5895,-4.5895,-4.5895,-4.5895,-4.5413,-4.5486,-4.5492,-4.5578,-4.5598,-4.5657,-4.5679,-4.5709,-4.5733,-4.5803,-4.5844,-4.5855,-4.588,-4.5929,-4.5972,-4.5975,-4.5993,-4.6015,-4.6016,-4.5913,-4.5899,-4.5885,-4.5868,-4.6019,-4.602,-4.6121,-4.6122,-4.6123]}]]